OpenBCM V1.08-5-g2f4a (Linux)

Packet Radio Mailbox

IZ3LSV

[San Dona' di P. JN]

 Login: GUEST





  
I0OJJ  > KEPS     24.08.25 02:40l 316 Lines 15020 Bytes #157 (0) @ AMSAT
BID : ORB25236.1
Read: GUEST
Subj: 2Line Orbital Elements 25236.AMSAT
Path: IZ3LSV<IK6IHL<IK7NXU<HB9ON<HB9ON<PI8ZTM<VK2IO<VK2RZ<IR0AAB<I0OJJ
Sent: 250824/0025z @:I0OJJ.ITA.EU [Rome] obcm1.08-10-g596e
From: I0OJJ @ I0OJJ.ITA.EU (Gustavo)
To:   KEPS @ AMSAT
X-Info: This message was generated automatically


QST de KM1P

AMSAT Orbital Elements for Amateur Satellites in TLE Format
From Orbital Analysis Auxilliary Summer Office
New England Sci-Tech STEM Education Center
Narragansett RI August 24, 2025
To all radio amateurs


These element sets describe the orbits of various satellites 
in use by the amateur radio community. For details see:
www.amsat.org/keplerian-elements-formats/

A daily update of element sets is available at:
www.amsat.org/tle/daily-bulletin.txt
or without bulletin text:
www.amsat.org/tle/dailytle.txt


AO-07
1 07530U 74089B   25235.24614124 -.00000026  00000-0  12875-3 0  9999
2 07530 101.9969 240.3116 0012143 341.6309  29.8811 12.53691012323182
UO-11
1 14781U 84021B   25234.63245651  .00001123  00000-0  12334-3 0  9997
2 14781  97.7613 199.5699 0009479  91.6334 268.5969 14.89571914212660
AO-27
1 22825U 93061C   25235.11307266  .00000082  00000-0  48499-4 0  9999
2 22825  98.7311 297.0199 0007326 252.0411 107.9973 14.30819660664370
FO-29
1 24278U 96046B   25235.27979527 -.00000011  00000-0  22374-4 0  9998
2 24278  98.5635 119.3100 0350397 148.9094 213.3305 13.53251799432874
NOAA-15
1 25338U 98030A   25235.06558849  .00000099  00000-0  58143-4 0  9996
2 25338  98.5335 258.3963 0011093 136.4667 223.7391 14.27005491418776
GO-32
1 25397U 98043D   25235.22523500  .00000057  00000-0  44903-4 0  9992
2 25397  98.9775 215.9264 0001655  36.6785 323.4506 14.24331117408916
ISS
1 25544U 98067A   25235.17620874  .00012063  00000-0  21811-3 0  9990
2 25544  51.6356 335.0454 0003287 257.9291 102.1330 15.50118269525557
NO-44
1 26931U 01043C   25235.25141021  .00000094  00000-0  66358-4 0  9997
2 26931  67.0509 294.7718 0006821 276.0366  83.9959 14.31765315247793
SO-50
1 27607U 02058C   25232.70277683  .00000937  00000-0  13299-3 0  9997
2 27607  64.5544 337.8749 0063927 318.6272  41.0000 14.81797708219918
CO-55
1 27844U 03031E   25235.29958629  .00000260  00000-0  13240-3 0  9990
2 27844  98.6781 242.6158 0009092 337.8901  22.1884 14.24045697149275
CO-57
1 27848U 03031J   25235.00189683  .00000208  00000-0  11116-3 0  9991
2 27848  98.6810 242.2710 0009392 356.7474   3.3641 14.23373259148953
RS-22
1 27939U 03042A   25235.28856288  .00000951  00000-0  15799-3 0  9992
2 27939  98.3348  46.5799 0012340 129.6008 306.8505 14.72508862171697
CO-58
1 28895U 05043F   25234.85995258  .00001300  00000-0  21883-3 0  9990
2 28895  98.2598  20.1881 0015594  73.5523 286.7395 14.71233841 57864
CO-65
1 32785U 08021C   25235.21626828  .00004642  00000-0  33063-3 0  9992
2 32785  97.7905 206.9903 0008593 328.7587  31.3127 15.05082518940306
CO-66
1 32791U 08021J   25234.46077819  .00010122  00000-0  46892-3 0  9999
2 32791  97.7328 216.2532 0001104 260.5044  99.6065 15.20301099941715
RS-30
1 32953U 08025A   25235.32788940  .00000016  00000-0  44478-4 0  9993
2 32953  82.5059 180.6987 0017922 241.7788 118.1482 12.43167423782689
NOAA-19
1 33591U 09005A   25235.17175864  .00000091  00000-0  72229-4 0  9997
2 33591  98.9922 300.2770 0014378 149.6433 210.5575 14.13397930852385
SRMSAT
1 37841U 11058D   25234.61254738  .00000383  00000-0  64328-4 0  9991
2 37841  19.9725  66.5364 0011741 159.1881 246.2356 14.11454709715585
ZACUBE-1
1 39417U 13066B   25232.77830642  .00003866  00000-0  33280-3 0  9993
2 39417  97.7858 189.4571 0043939 167.9113 192.3174 14.97222927635715
Delfi-N3xt
1 39428U 13066N   25232.81396104  .00005070  00000-0  50804-3 0  9990
2 39428  97.8300 149.6803 0085132 121.8050 239.1493 14.89107122629825
GOMX-1
1 39430U 13066Q   25235.27053971  .00001269  00000-0  20316-3 0  9999
2 39430  97.6758  89.3351 0130915 313.8515  45.1931 14.67895328626186
LO-74
1 39440U 13066AA  25235.27858795  .00002885  00000-0  29202-3 0  9995
2 39440  97.8526 179.3576 0059700 294.2970  65.2020 14.90457651632560
AO-73
1 39444U 13066AE  25232.86008903  .00006045  00000-0  44357-3 0  9999
2 39444  97.7845 195.1109 0042355 140.6508 219.7807 15.03137628634446
DTUSAT-2
1 40030U 14033W   25234.90633754  .00004638  00000-0  29651-3 0  9998
2 40030  98.0610 210.3904 0009793 157.5408 202.6250 15.09121905607609
EO-80
1 40032U 14033Y   25235.18804008  .00005448  00000-0  34659-3 0  9997
2 40032  98.0498 210.2370 0010609 105.7912 254.4486 15.09205582607626
LILACSAT-2
1 40908U 15049K   25235.28447560  .00010284  00000-0  25565-3 0  9994
2 40908  97.5038 257.5073 0007110 243.8441 116.2074 15.40476823549727
IO-86
1 40931U 15052B   25151.18580175  .00001241  00000-0  78118-4 0  9996
2 40931   6.0006  24.0987 0012733 338.8432  21.1169 14.78805930523159
Horyu-4
1 41340U 16012D   25234.57538395  .00021164  00000-0  51131-3 0  9991
2 41340  30.9974 353.2590 0007253 109.1672 250.9760 15.39893131524199
Lapan A3
1 41603U 16040E   25235.31643230  .00002922  00000-0  10194-3 0  9997
2 41603  97.1400 237.0226 0011071  13.2896 346.8635 15.30322374509210
CAS-2T
1 41847U 16066G   25235.19225419  .00000529  00000-0  85327-4 0  9998
2 41847  98.4159 308.9945 0344572 312.8919  44.3809 14.43662736461784
CAS-4B
1 42759U 17034B   25235.29224253  .00115482  00000-0  73381-3 0  9994
2 42759  43.0016 233.1585 0020393  98.0392 262.2792 15.75085197454335
CAS-4A
1 42761U 17034D   25235.24533603  .00125799  00000-0  71844-3 0  9998
2 42761  43.0052 229.5033 0021082 103.3114 257.0108 15.77435657454350
TechnoSat
1 42829U 17042E   25235.19610755  .00002683  00000-0  20756-3 0  9992
2 42829  97.3993  40.3659 0018190  33.8033 326.4348 15.02159078441921
AO-91
1 43017U 17073E   25235.17700775  .00005950  00000-0  30158-3 0  9993
2 43017  97.5143 104.0754 0167664 272.2798  85.9241 15.05872364420437
S-Net D
1 43186U 18014G   25235.27532098  .00004545  00000-0  26493-3 0  9994
2 43186  97.5536 137.4184 0008107 339.9770  20.1141 15.12458445413669
S-Net B
1 43187U 18014H   25235.28169990  .00004539  00000-0  26471-3 0  9992
2 43187  97.5542 137.4001 0008641 333.7824  26.2968 15.12437830413669
S-Net A
1 43188U 18014J   25235.27544348  .00004543  00000-0  26476-3 0  9996
2 43188  97.5550 137.5540 0008538 334.7770  25.3043 15.12464328413660
S-Net C
1 43189U 18014K   25235.28428262  .00004472  00000-0  26085-3 0  9991
2 43189  97.5567 137.5896 0009815 324.9814  35.0770 15.12434329412215
Ten-Koh
1 43677U 18084G   25235.07283056  .00001650  00000-0  13476-3 0  9992
2 43677  98.0831  50.2792 0007393  29.0655 331.0978 15.00875444371417
PO-101
1 43678U 18084H   25235.31078568  .00002345  00000-0  20070-3 0  9990
2 43678  98.1073  54.3179 0009142  50.0261 310.1762 14.98620922371573
QO-100
1 43700U 18090A   25235.23933507  .00000000  00000-0  00000-0 0  9991
2 43700   0.0251 135.7777 0001020  31.5722 276.3968  1.00268981 24680
MinXSS-2
1 43758U 18099A   25235.17942363  .00013553  00000-0  50106-3 0  9998
2 43758  97.4968 301.5400 0010147 248.0206 111.9955 15.27786114368358
AO-95
1 43770U 18099N   25232.90536125  .00008743  00000-0  42809-3 0  9991
2 43770  97.4865 290.2230 0009151 326.5325  33.5330 15.18376664367529
SNUSat 2
1 43782U 18099AA  25232.59686309  .00006543  00000-0  34835-3 0  9995
2 43782  97.4549 286.0721 0010193 261.8259  98.1817 15.15518189367405
SnugLite
1 43784U 18099AC  25234.56682295  .00007585  00000-0  36833-3 0  9993
2 43784  97.4357 287.7263 0002127 236.4428 123.6604 15.18737460367863
ITASat 1
1 43786U 18099AE  25235.13086625  .00004198  00000-0  23607-3 0  9996
2 43786  97.4509 287.8431 0012570 312.6328  47.3843 15.13748566367738
EAGLET 1
1 43790U 18099AJ  25235.13451739  .00002739  00000-0  17420-3 0  9998
2 43790  97.4707 287.5454 0010260 296.8082  63.2098 15.09596763367317
ESEO
1 43792U 18099AL  25233.71457975  .00001110  00000-0  87078-4 0  9999
2 43792  97.4435 278.4337 0009710 273.9696  86.0420 15.02852452366809
JO-97
1 43803U 18099AX  25235.16155503  .00009639  00000-0  42096-3 0  9999
2 43803  97.4606 293.6218 0006213 234.2203 125.8456 15.22313385368114
Suomi 100
1 43804U 18099AY  25235.10405852  .00007919  00000-0  37443-3 0  9998
2 43804  97.4669 292.6364 0010806 243.2426 116.7703 15.19609779368019
ISAT
1 43879U 18111D   25232.71201697  .00021436  00000-0  68493-3 0  9999
2 43879  97.5894 148.8029 0005768 314.9686  45.1087 15.32464161364731
UWE-4
1 43880U 18111E   25232.69854209  .00015582  00000-0  57505-3 0  9998
2 43880  97.5838 146.7330 0009661 327.1964  32.8673 15.27819350364635
Sparrow
1 43881U 18111F   25232.76290733  .00022289  00000-0  68130-3 0  9991
2 43881  97.6049 152.0269 0005770   9.2214 350.9132 15.33871629364846
Prox-1
1 44339U 19036A   25235.22545139  .00008820  00000-0  10714-2 0  9993
2 44339  23.9963 290.9857 0007084 195.1469 164.8817 14.81299774329091
Taurus 1
1 44530U 19059C   25235.31632670  .00005463  00000-0  99179-3 0  9991
2 44530  98.6143  18.3270 0009943 159.9837 200.1757 14.66615124314890
Duchifat 3
1 44854U 19089C   25235.23803392  .00050321  00000-0  77458-3 0  9994
2 44854  36.9387 238.3349 0006977 209.2733 150.7635 15.53161686314603
TO-108
1 44881U 19093C   25235.25247626  .00000745  00000-0  91887-4 0  9991
2 44881  97.7881 309.3307 0013430 352.5723   7.5292 14.85731593307168
FloripaSat 1
1 44885U 19093G   25235.25373741  .00004659  00000-0  38764-3 0  9995
2 44885  97.8144 323.0332 0008202 319.3858  40.6752 14.99155372307931
RS-44
1 44909U 19096E   25235.21709605  .00000019  00000-0  25364-4 0  9992
2 44909  82.5244 177.6966 0218363 120.8862 241.3914 12.79742707264232
UPMSat 2
1 46276U 20061E   25232.78559593  .00115142  00000-0  59756-3 0  9998
2 46276  97.2362 310.1281 0002029 207.8090 152.3070 15.80682542276825
SALSAT
1 46495U 20068K   25234.91526667  .00005665  00000-0  23917-3 0  9999
2 46495  97.8665 216.4523 0009070 262.0498  97.9709 15.23677845269849
